DAL987 KTUS-KPSP

Flight info

Callsign DAL987
Flight time N/A
Altitude 30000
Route WLDKT4 GBN KOFFA CURIV RDBUL1
Aircraft B738/M-SDE2E3FGHIRWXY/LB1

Departure

Time 2026-04-30 14:40
Airport Tucson International Airport (KTUS)

Arrival

Time N/A
Airport Palm Springs International Airport (KPSP)
Time Latitude Longitude Altitude Speed Heading
2026-04-30 14:20 32.12026 -110.93923 2596 ft 0 kts 55°
2026-04-30 14:32 32.12021 -110.93960 2591 ft 3 kts 121°
2026-04-30 14:32 32.12029 -110.93971 2587 ft 0 kts 146°
2026-04-30 14:33 32.12035 -110.93976 2585 ft 0 kts 146°
2026-04-30 14:33 32.12025 -110.93972 2588 ft 9 kts 160°
2026-04-30 14:34 32.11947 -110.93955 2592 ft 12 kts 174°
2026-04-30 14:34 32.11866 -110.93952 2593 ft 11 kts 173°
2026-04-30 14:34 32.11797 -110.93912 2592 ft 11 kts 138°
2026-04-30 14:34 32.11728 -110.93830 2599 ft 17 kts 135°
2026-04-30 14:35 32.11596 -110.93673 2606 ft 16 kts 134°
2026-04-30 14:35 32.11495 -110.93554 2611 ft 15 kts 137°
2026-04-30 14:35 32.11412 -110.93460 2616 ft 23 kts 135°
2026-04-30 14:36 32.11246 -110.93263 2620 ft 38 kts 136°
2026-04-30 14:36 32.11062 -110.93049 2623 ft 36 kts 135°
2026-04-30 14:36 32.10897 -110.92854 2628 ft 32 kts 135°
2026-04-30 14:36 32.10750 -110.92682 2636 ft 29 kts 135°
2026-04-30 14:37 32.10613 -110.92522 2643 ft 27 kts 135°
2026-04-30 14:37 32.10485 -110.92372 2645 ft 25 kts 135°
2026-04-30 14:37 32.10372 -110.92242 2648 ft 12 kts 136°
2026-04-30 14:37 32.10295 -110.92228 2649 ft 12 kts 210°
2026-04-30 14:38 32.10258 -110.92309 2649 ft 12 kts 260°
2026-04-30 14:38 32.10277 -110.92380 2652 ft 8 kts 312°
2026-04-30 14:38 32.10296 -110.92402 2651 ft 1 kts 315°
2026-04-30 14:38 32.10302 -110.92409 2648 ft 2 kts 315°
2026-04-30 14:39 32.10316 -110.92425 2648 ft 4 kts 315°
2026-04-30 14:39 32.10339 -110.92451 2647 ft 5 kts 315°
2026-04-30 14:39 32.10357 -110.92472 2646 ft 0 kts 316°
2026-04-30 14:40 32.10556 -110.92707 2642 ft 85 kts 315°
2026-04-30 14:40 32.11169 -110.93427 2621 ft 161 kts 314°
2026-04-30 14:40 32.12033 -110.94465 3039 ft 194 kts 314°
2026-04-30 14:40 32.13047 -110.95677 3580 ft 206 kts 315°
2026-04-30 14:41 32.14043 -110.96835 4565 ft 197 kts 315°
2026-04-30 14:41 32.15071 -110.98027 5114 ft 219 kts 315°
2026-04-30 14:41 32.16235 -110.99385 5328 ft 251 kts 315°
2026-04-30 14:41 32.17543 -111.00920 5749 ft 275 kts 315°
2026-04-30 14:42 32.18912 -111.02534 6604 ft 280 kts 314°
2026-04-30 14:42 32.20286 -111.04156 7602 ft 279 kts 313°
2026-04-30 14:42 32.21649 -111.05785 8577 ft 278 kts 309°
2026-04-30 14:42 32.22585 -111.07750 9502 ft 276 kts 284°
2026-04-30 14:43 32.22969 -111.09958 10440 ft 277 kts 278°
2026-04-30 14:43 32.23304 -111.12294 10755 ft 303 kts 277°
2026-04-30 14:43 32.23661 -111.14858 10980 ft 328 kts 278°
2026-04-30 14:43 32.24041 -111.17561 11550 ft 338 kts 278°
2026-04-30 14:44 32.24434 -111.20313 12374 ft 340 kts 277°
2026-04-30 14:44 32.24832 -111.23072 13270 ft 342 kts 277°
2026-04-30 14:44 32.25235 -111.25852 14106 ft 345 kts 277°
2026-04-30 14:44 32.25641 -111.28657 14884 ft 348 kts 277°
2026-04-30 14:45 32.26051 -111.31483 15689 ft 350 kts 277°
2026-04-30 14:45 32.26464 -111.34336 16428 ft 355 kts 277°
2026-04-30 14:45 32.26879 -111.37198 16833 ft 355 kts 277°
2026-04-30 14:45 32.27294 -111.40073 16909 ft 356 kts 277°
2026-04-30 14:46 32.27710 -111.42959 16909 ft 357 kts 277°
2026-04-30 14:46 32.28004 -111.44871 16910 ft 359 kts 280°
2026-04-30 14:46 32.28938 -111.47645 17103 ft 371 kts 296°
2026-04-30 14:46 32.30336 -111.50227 17926 ft 372 kts 299°
2026-04-30 14:47 32.31784 -111.52764 18688 ft 373 kts 299°
2026-04-30 14:47 32.33253 -111.55311 19312 ft 377 kts 299°
2026-04-30 14:47 32.34737 -111.57894 19903 ft 382 kts 299°
2026-04-30 14:47 32.36232 -111.60510 20499 ft 386 kts 298°
2026-04-30 14:48 32.37736 -111.63155 21103 ft 389 kts 298°
2026-04-30 14:48 32.39247 -111.65828 21691 ft 393 kts 298°
2026-04-30 14:48 32.40772 -111.68533 22257 ft 397 kts 298°
2026-04-30 14:48 32.42306 -111.71261 22803 ft 400 kts 298°
2026-04-30 14:49 32.43854 -111.74018 23351 ft 404 kts 298°
2026-04-30 14:49 32.45414 -111.76799 23807 ft 407 kts 297°
2026-04-30 14:49 32.46981 -111.79594 24287 ft 409 kts 297°
2026-04-30 14:49 32.48558 -111.82408 24765 ft 411 kts 297°
2026-04-30 14:50 32.51732 -111.88080 25685 ft 415 kts 297°
2026-04-30 14:50 32.53330 -111.90940 26148 ft 418 kts 296°
2026-04-30 14:51 32.56556 -111.96719 26997 ft 423 kts 296°
2026-04-30 14:51 32.58181 -111.99635 27390 ft 425 kts 296°
2026-04-30 14:51 32.61424 -112.05455 27843 ft 425 kts 296°
2026-04-30 14:52 32.63050 -112.08373 27858 ft 425 kts 296°
2026-04-30 14:52 32.66304 -112.14228 27872 ft 425 kts 296°
2026-04-30 14:52 32.67931 -112.17160 27876 ft 425 kts 296°
2026-04-30 14:53 32.71186 -112.23033 27875 ft 427 kts 296°
2026-04-30 14:53 32.72816 -112.25977 27865 ft 427 kts 296°
2026-04-30 14:54 32.76072 -112.31864 27871 ft 426 kts 296°
2026-04-30 14:54 32.79323 -112.37751 27873 ft 426 kts 296°
2026-04-30 14:55 32.82566 -112.43634 27884 ft 425 kts 296°
2026-04-30 14:55 32.84184 -112.46573 27893 ft 425 kts 296°
2026-04-30 14:55 32.87421 -112.52460 27901 ft 425 kts 296°
2026-04-30 14:56 32.90656 -112.58354 27904 ft 425 kts 296°
2026-04-30 14:56 32.93868 -112.64211 27907 ft 425 kts 296°
2026-04-30 14:57 32.95486 -112.67155 27910 ft 426 kts 296°
2026-04-30 14:57 32.99359 -112.72680 27912 ft 435 kts 305°
2026-04-30 14:58 33.03461 -112.77911 27897 ft 435 kts 305°
2026-04-30 14:58 33.05520 -112.80553 27894 ft 435 kts 305°
2026-04-30 14:58 33.09602 -112.85882 27880 ft 435 kts 304°
2026-04-30 14:59 33.13653 -112.91240 27865 ft 435 kts 304°
2026-04-30 15:00 33.19708 -112.99285 27867 ft 434 kts 304°
2026-04-30 15:00 33.23740 -113.04650 27863 ft 433 kts 304°